Regional Weather Roundup
Issued by NWS

Home | Current Version | Previous Version | Text Only | Print | Product List | Glossary On
Versions: 1 2 3 4 5 6 7 8 9 10 11 12 13 14 15 16 17 18 19 20 21 22 23 24 25 26 27 28 29 30 31 32 33 34 35 36 37 38 39 40 41 42 43 44 45 46 47 48 49 50
000
ASUS43 KDMX 221107
RWRIA

WEATHER ROUNDUP FOR IOWA
NATIONAL WEATHER SERVICE DES MOINES IA
500 AM CST MON DEC 22 2014

NOTE: "FAIR" INDICATES FEW OR NO CLOUDS BELOW 12,000 FEET WITH NO
SIGNIFICANT WEATHER AND/OR OBSTRUCTIONS TO VISIBILITY.

* - THESE STATIONS ARE NOT NWS STATIONS...THUS NOT UNDER NWS
QUALITY CONTROL.  THEY ALSO DO NOT REPORT WEATHER SUCH
AS PRECIPITATION OR FOG.

IAZ001>003-012>014-020>022-031>034-043>046-221200-
   NORTHWEST IOWA

CITY           SKY/WX    TMP DP  RH WIND       PRES   REMARKS
CARROLL *      CLOUDY    39  39 100 S16       29.59F FOG     WCI  30
CHEROKEE *     DRIZZLE   41  41 100 S12       29.55S
DENISON *      MIX PCPN  41  41 100 S16G24    29.54F
LE MARS *      MIX PCPN  43  41  93 S14       29.52F
ORANGE CITY *  DRIZZLE   43  39  87 S9        29.51F
SHELDON *      CLOUDY    39  39 100 S14       29.52S FOG     WCI  31
SIOUX CITY     LGT RAIN  43  41  93 SE10      29.52F FOG
SPENCER        CLOUDY    40  38  93 SE16      29.56F FOG     WCI  31
STORM LAKE *   MIX PCPN  39  39 100 S17       29.56F VSB 1   WCI  30
$$

IAZ055>058-069>071-079>083-090>094-221200-
   SOUTHWEST IOWA

CITY           SKY/WX    TMP DP  RH WIND       PRES   REMARKS
ATLANTIC *     CLOUDY    41  41 100 S13       29.59F FOG
AUDUBON *      DRIZZLE   39  36  87 S13       29.60F WCI  32
CLARINDA *     CLOUDY    41  39  93 SE12      29.62F
COUNCIL BLFS * MIX PCPN  41  41 100 S15       29.55F
CRESTON *      CLOUDY    39  39 100 SE14      29.63F WCI  31
HARLAN  *      CLOUDY    41  41 100 S14G20    29.61F FOG
LAMONI         CLOUDY    39  37  92 SE12      29.65F WCI  32
RED OAK *      CLOUDY    41  41 100 SE12      29.59F FOG
SHENANDOAH *   CLOUDY    41  41 100 SE13      29.59F FOG
$$

IAZ047>049-059>061-072>074-084-221200-
   CENTRAL IOWA

CITY           SKY/WX    TMP DP  RH WIND       PRES   REMARKS
AMES           LGT RAIN  39  37  92 SE13      29.66F WCI  31
ANKENY *       CLOUDY    39  39 100 S12       29.67F WCI  32
CHARITON *     CLOUDY    39  37  93 SE13      29.68F WCI  32
DES MOINES     CLOUDY    41  37  86 S13       29.67F
GRINNELL*      DRIZZLE   37  36  93 SE12      29.71F WCI  30
KNOXVILLE *    CLOUDY    39  36  87 SE10      29.68F WCI  32
MARSHALLTOWN   CLOUDY    37  35  92 SE14      29.69F WCI  28
PELLA *        CLOUDY    39  36  87 SE9       29.72S WCI  33
PERRY *        CLOUDY    41  39  93 SE13      29.64F FOG
$$

IAZ004>006-015-016-023>025-035-036-221200-
   NORTH CENTRAL IOWA

CITY           SKY/WX    TMP DP  RH WIND       PRES   REMARKS
ALGONA *       FOG       39  39 100 SE17G25   29.62S VSB 1   WCI  30
CLARION *      CLOUDY    37  37 100 S18       29.64F FOG     WCI  27
ESTHERVILLE    CLOUDY    38  38 100 S21G28    29.57F FOG     WCI  28
FORT DODGE *   CLOUDY    39  37  93 S13G18    29.63F WCI  32
MASON CITY     CLOUDY    37  36  96 SE16      29.68S FOG     WCI  28
FOREST CITY *  CLOUDY    37  36  93 SE15      29.65S FOG     WCI  28
IOWA FALLS *   CLOUDY    37  36  94 SE14      29.68F FOG     WCI  29
$$

IAZ007>011-017>019-026>030-037>042-050>054-066-221200-
   NORTHEAST IOWA

CITY           SKY/WX    TMP DP  RH WIND       PRES   REMARKS
CEDAR RAPIDS   CLOUDY    36  34  92 SE9       29.76F WCI  29
CHARLES CITY * CLOUDY    36  36 100 SE16G23   29.71S FOG     WCI  26
CLINTON *      CLOUDY    36  30  80 SE15      29.86F WCI  26
DECORAH *      CLOUDY    34  34 100 SE12G18   29.74F FOG     WCI  25
DUBUQUE        CLOUDY    33  31  92 SE14      29.80F FOG     WCI  23
MONTICELLO *   CLOUDY    34  34 100 SE10G16   29.79F WCI  26
OELWEIN *      CLOUDY    34  34 100 SE16      29.75S FOG     WCI  23
WATERLOO       CLOUDY    36  35  96 SE16      29.72F WCI  26
$$

IAZ064-065-067-068-078-221200-
   EAST CENTRAL IOWA

CITY           SKY/WX    TMP DP  RH WIND       PRES   REMARKS
DAVENPORT      CLOUDY    36  30  79 SE12      29.82F WCI  28
IOWA CITY      CLOUDY    37  33  85 SE9       29.79F WCI  30
MT. PLEASANT * CLOUDY    37  32  81 SE13G20   29.77F WCI  29
MUSCATINE *    CLOUDY    39  32  75 SE14      29.80F WCI  31
QUAD CITIES    CLOUDY    36  31  82 SE10      29.82F WCI  28
$$

IAZ062-063-075>077-085>089-095>099-221200-
   SOUTHEAST IOWA

CITY           SKY/WX    TMP DP  RH WIND       PRES   REMARKS
BURLINGTON     LGT RAIN  39  33  79 SE12      29.79F WCI  32
FAIRFIELD *    CLOUDY    39  34  81 SE12      29.75F WCI  32
FORT MADISON * CLOUDY    41  36  81 SE6       29.79F
KEOKUK *       CLOUDY    39  34  81 SE10      29.77F WCI  32
OSKALOOSA *    CLOUDY    37  36  93 SE13      29.73S WCI  29
CENTERVILLE *  CLOUDY    37  37 100 SE10      29.72S WCI  30
OTTUMWA        CLOUDY    39  34  82 SE14      29.72F WCI  31
WASHINGTON *   CLOUDY    39  37  93 SE13      29.77F WCI  32
$$

ABBREVIATIONS USED IN REMARKS
   TC - TEMPERATURES IN CELSIUS
  WCI - WIND CHILL INDEX
   HX - HEAT INDEX
  VSB - VISIBILITY
$$




USA.gov is the U.S. government's official web portal to all federal, state and local government web resources and services.